Siemreap, Cambodia

11:01 AM +07 on February 26, 2018 (GMT +0700)
Siem Reap

Weather History for VDSR - August, 2014

Change the Weather History Date:

Tuesday, August 5, 2014

  Actual Average Record
Temperature  
Mean Temperature 83 °F -  
Max Temperature 89 °F - - ()
Min Temperature 77 °F - - ()
Cooling Degree Days 18    
Growing Degree Days 33 (Base 50)    
Moisture  
Dew Point 75 °F    
Average Humidity 84    
Maximum Humidity 94    
Minimum Humidity 66    
Precipitation  
Precipitation 0.00 in - - ()
Sea Level Pressure  
Sea Level Pressure 29.69 in    
Wind  
Wind Speed 5 mph ()    
Max Wind Speed 14 mph    
Max Gust Speed -    
Visibility 5.3 miles    
Events Rain , Thunderstorm    
T = Trace of Precipitation, MM = Missing Value Source: Averaged Metar Reports

Daily Weather History Graph

Daily Weather History Graph

Search for Another Location

Airport or City:

Trip Planner

Search our weather history database for the weather conditions in past years. The results will help you decide how hot, cold, wet, or windy it might be!

Date:

Astronomy

Aug. 05, 2014 Rise Set
Actual Time 5:50 AM +07 6:30 PM +07
Civil Twilight 5:27 AM +07 6:53 PM +07
Nautical Twilight 5:01 AM +07 7:19 PM +07
Astronomical Twilight 4:35 AM +07 7:45 PM +07
Moon 1:11 PM +07 (8/5) 12:11 AM +07 (8/5)
Length of Visible Light 13h 25m
Length of Day
12h 40m
Waxing Gibbous, 62% of the Moon is Illuminated
Aug 5
Waxing Gibbous
Aug 11
Full
Aug 17
Last Quarter
Aug 25
New
Sep 2
First Quarter

Hourly Weather History & Observations

Time (+07) Temp. Heat Index Dew Point Humidity Pressure Visibility Wind Dir Wind Speed Gust Speed Precip Events Conditions
12:00 AM 80.6 °F 86.2 °F 75.2 °F 84% - 5.6 mi SW 4.6 mph - N/A   Partly Cloudy
12:30 AM 80.6 °F 86.2 °F 75.2 °F 84% 29.71 in 5.6 mi SW 4.6 mph - N/A   Partly Cloudy
1:00 AM 80.6 °F 86.2 °F 75.2 °F 84% 29.71 in 5.6 mi SW 8.1 mph - N/A   Partly Cloudy
7:00 AM - - - %  in - Calm Calm - -  
7:00 AM 80.6 °F 86.2 °F 75.2 °F 84% 29.68 in 5.6 mi SW 2.3 mph - N/A   Scattered Clouds
7:30 AM 80.6 °F 86.2 °F 75.2 °F 84% 29.71 in 5.6 mi SW 2.3 mph - N/A   Scattered Clouds
8:00 AM 80.6 °F 86.2 °F 75.2 °F 84% 29.71 in 5.6 mi SSW 2.3 mph - N/A   Scattered Clouds
8:30 AM 80.6 °F 86.2 °F 75.2 °F 84% 29.74 in 5.6 mi SW 2.3 mph - N/A   Scattered Clouds
9:00 AM 82.4 °F 89.5 °F 75.2 °F 79% 29.74 in 5.6 mi WSW 5.8 mph - N/A   Scattered Clouds
9:30 AM 82.4 °F 89.5 °F 75.2 °F 79% 29.74 in 5.6 mi WSW 5.8 mph - N/A   Scattered Clouds
10:00 AM 84.2 °F 92.3 °F 75.2 °F 74% 29.71 in 5.6 mi WSW 5.8 mph - N/A   Scattered Clouds
10:30 AM 84.2 °F 92.3 °F 75.2 °F 74% 29.71 in 5.6 mi SW 6.9 mph - N/A   Scattered Clouds
11:00 AM 84.2 °F 92.3 °F 75.2 °F 74% 29.71 in 5.6 mi SW 6.9 mph - N/A   Scattered Clouds
11:30 AM 84.2 °F 92.3 °F 75.2 °F 74% 29.71 in 5.6 mi WSW 6.9 mph - N/A   Scattered Clouds
12:30 PM 84.2 °F 92.3 °F 75.2 °F 74% 29.68 in 5.6 mi WSW 6.9 mph - N/A   Scattered Clouds
1:00 PM 87.8 °F 97.6 °F 75.2 °F 66% 29.65 in 5.6 mi SW 6.9 mph - N/A   Scattered Clouds
1:30 PM 84.2 °F 92.3 °F 75.2 °F 74% 29.65 in 5.6 mi SW 9.2 mph - N/A   Scattered Clouds
2:00 PM 89.6 °F 102.2 °F 77.0 °F 66% 29.62 in 5.6 mi SSW 13.8 mph - N/A Rain Rain
2:30 PM 77.0 °F - 75.2 °F 94% 29.65 in 5.0 mi WNW 13.8 mph - N/A Rain Light Rain
3:00 PM 78.8 °F - 75.2 °F 89% 29.65 in 5.0 mi West 8.1 mph - N/A Rain , Thunderstorm Light Thunderstorms and Rain
3:30 PM 77.0 °F - 75.2 °F 94% 29.65 in 5.0 mi WSW 6.9 mph - N/A Rain Light Rain
4:00 PM 78.8 °F - 75.2 °F 89% 29.65 in 5.0 mi WSW 5.8 mph - N/A Rain Light Rain
4:30 PM 78.8 °F - 75.2 °F 89% 29.65 in 5.0 mi WSW 5.8 mph - N/A Rain Light Rain
5:00 PM 80.6 °F 86.2 °F 75.2 °F 84% 29.65 in 5.0 mi WSW 8.1 mph - N/A Rain Light Rain
5:30 PM 80.6 °F 86.2 °F 75.2 °F 84% 29.65 in 5.0 mi WNW 9.2 mph - N/A Rain Light Rain
6:00 PM 80.6 °F 86.2 °F 75.2 °F 84% 29.65 in 5.0 mi West 10.4 mph - N/A Rain Light Rain
6:30 PM 77.0 °F - 73.4 °F 89% 29.68 in 5.0 mi WSW 6.9 mph - N/A Rain Light Rain
7:00 PM 77.0 °F - 73.4 °F 89% 29.68 in 5.0 mi WSW 4.6 mph - N/A Rain Light Rain
7:30 PM 77.0 °F - 75.2 °F 94% 29.68 in 5.0 mi SW 3.5 mph - N/A Rain Light Rain
8:00 PM 77.0 °F - 75.2 °F 94% 29.71 in 5.0 mi WSW 2.3 mph - N/A Rain Light Rain
8:30 PM 77.0 °F - 75.2 °F 94% 29.71 in 5.0 mi South 3.5 mph - N/A Rain Light Rain
9:00 PM 77.0 °F - 75.2 °F 94% 29.74 in 5.0 mi SSW 3.5 mph - N/A Rain Light Rain
9:30 PM 78.8 °F - 75.2 °F 89% 29.74 in 5.0 mi SSW 4.6 mph - N/A Rain Light Rain
10:00 PM 78.8 °F - 73.4 °F 83% 29.74 in 5.6 mi SW 4.6 mph - N/A Rain Light Rain
10:30 PM 78.8 °F - 73.4 °F 83% 29.74 in 5.6 mi SW 5.8 mph - N/A   Mostly Cloudy
11:00 PM 78.8 °F - 75.2 °F 89% 29.74 in 5.6 mi SW 6.9 mph - N/A   Scattered Clouds
11:30 PM 78.8 °F - 75.2 °F 89% 29.74 in 5.6 mi SW 5.8 mph - N/A   Scattered Clouds